[[{"header":{"parameterUnit":"m.s-1","parameterCategory":1,"la1":30.2991,"la2":30.254,"lo1":-89.0895,"lo2":-89.0444,"dy":0.0017,"dx":0.0017,"nx":28,"ny":28,"refTime":"2025-07-03T09:00:00:Z","depth":0,"parameterNumber":2,"parameterNumberName":"U-component_of_WINDS"},"data":[0,0,0,0,0,0,0,0,0,0,0,0,0,0,0,0,0,0,0,0,0,0,0,0,0,0,0,0,0,0,0,0,0,0,0,0,0,0,0,0,0,0,0,0,0,0,0,0,0,0,0,0,0,0,0,0,0,0,0.0617,0.0617,0,0.0649,0.065,0.065,0.0677,0.0677,0.0677,0.0677,0.071,0.0711,0.0711,0,0,0,0,0,0,0,0,0,0,0,0,0,0.0577,0.0578,0.0616,0.0617,0.0617,0.0649,0.065,0.065,0.0677,0.0677,0.0677,0.0678,0.071,0.0711,0.0711,0,0,0,0,0,0,0,0,0,0,0,0,0,0.06,0.0578,0.0616,0.0634,0.0636,0.0649,0.065,0.065,0.0676,0.0677,0.0677,0.0678,0.071,0.071,0.0711,0.0709,0,0,0.0714,0.0715,0,0,0,0,0,0,0,0,0.0599,0.0602,0.0631,0.0633,0.0635,0.0659,0.0648,0.067,0.0676,0.0661,0.0677,0.0678,0.0693,0.0695,0.07,0.071,0.0712,0.0714,0.0715,0.0715,0.0715,0,0,0,0,0,0,0,0.0597,0.0601,0.0629,0.0632,0.0634,0.0641,0.0645,0.0652,0.0674,0.0663,0.0665,0.0668,0.0694,0.0699,0.0701,0.0712,0.0714,0.0715,0.0716,0.0716,0.0724,0.0723,0,0,0,0,0,0,0.0593,0.0599,0.0628,0.063,0.0618,0.0641,0.0646,0.0651,0.0674,0.0678,0.0668,0.0669,0.0698,0.07,0.0702,0.0702,0.0715,0.0716,0.0717,0.0724,0.0724,0.0723,0,0,0,0,0,0,0.0592,0.0595,0.0627,0.0615,0.062,0.0642,0.0648,0.0652,0.0657,0.0678,0.0682,0.0669,0.0698,0.0701,0.0708,0.0704,0.0716,0.0717,0.0725,0.0724,0.0724,0.07,0,0,0,0,0,0,0.0591,0.0595,0.0594,0.0615,0.062,0.0631,0.0647,0.0652,0.0659,0.0661,0.0681,0.0684,0.0699,0.0706,0.0708,0.0705,0.0718,0.0725,0.0724,0.0724,0.0702,0.0699,0.0697,0,0,0,0,0,0.0589,0.0585,0.0594,0.0597,0.062,0.0631,0.0634,0.0651,0.0658,0.0658,0.0672,0.0684,0.0704,0.0706,0.0709,0.0706,0.0725,0.0724,0.0724,0.0703,0.07,0.0697,0,0,0,0,0,0,0.0562,0.0588,0.0598,0.0601,0.0613,0.0635,0.0635,0.0647,0.0657,0.0659,0.0679,0.0684,0.0688,0.0698,0.07,0.0706,0.0716,0.0716,0.0699,0.0697,0.0694,0.0692,0.0719,0,0,0,0,0,0.0557,0.0564,0.0586,0.0587,0.0593,0.0613,0.0618,0.063,0.0644,0.065,0.0664,0.0677,0.0687,0.0692,0.0702,0.0704,0.0709,0.0703,0.0701,0.0699,0.0698,0.0701,0.0699,0.0721,0.0721,0.0721,0,0,0.0545,0.056,0.0563,0.0582,0.0593,0.06,0.0617,0.0623,0.0629,0.0651,0.0658,0.0669,0.0685,0.0689,0.0692,0.0698,0.0694,0.0698,0.0696,0.0697,0.07,0.0698,0.0697,0.072,0.072,0.072,0,0,0.0527,0.0539,0.0541,0.0553,0.057,0.0584,0.0585,0.0606,0.0614,0.0622,0.0639,0.0646,0.0661,0.0672,0.068,0.0669,0.0681,0.0672,0.066,0.0663,0.0661,0.066,0.0657,0.0655,0.0672,0.0671,0.0671,0,0.051,0.0522,0.0541,0.0547,0.0555,0.0576,0.0579,0.0589,0.0609,0.0614,0.062,0.0642,0.0654,0.0662,0.0659,0.0665,0.0667,0.0669,0.066,0.0659,0.0658,0.0655,0.0654,0.067,0.067,0.0671,0.0671,0,0.05,0.0508,0.0508,0.0528,0.0536,0.054,0.0561,0.0567,0.0579,0.0592,0.06,0.0616,0.063,0.0633,0.0644,0.0643,0.0647,0.0656,0.0667,0.0654,0.0652,0.0651,0.0669,0.0669,0.0669,0.067,0,0,0.0465,0.0497,0.0496,0.0506,0.0528,0.0534,0.0541,0.0555,0.056,0.0574,0.058,0.0593,0.0603,0.0612,0.0625,0.0627,0.0619,0.0637,0.0638,0.0634,0.062,0.0613,0.0612,0.0628,0.0628,0.0627,0.0619,0,0.0451,0.0463,0.0481,0.0487,0.0496,0.0517,0.0523,0.0537,0.055,0.0559,0.0574,0.0583,0.0595,0.0601,0.0604,0.0619,0.0617,0.062,0.0634,0.0634,0.0629,0.061,0.0602,0.0594,0.0619,0.0618,0.0618,0,0.0436,0.0449,0.0456,0.0479,0.0483,0.0488,0.0504,0.0512,0.0529,0.0539,0.055,0.0565,0.0573,0.0583,0.0595,0.0597,0.0604,0.0613,0.0613,0.0615,0.0625,0.0612,0.0591,0.059,0.0617,0.0617,0.0617,0,0.041,0.0429,0.0437,0.0445,0.0471,0.0474,0.0486,0.0503,0.0512,0.0526,0.0531,0.0546,0.0554,0.0565,0.0584,0.0589,0.0594,0.0605,0.0603,0.0602,0.0602,0.0602,0.0583,0.0606,0.0606,0.0606,0.0607,0,0.0392,0.0396,0.0426,0.043,0.0435,0.0457,0.0462,0.0475,0.0491,0.0499,0.0518,0.0525,0.055,0.056,0.0574,0.0583,0.0586,0.0595,0.0598,0.0593,0.0592,0.0597,0.0598,0.0606,0.0606,0.0606,0.0606,0,0.0364,0.0384,0.0393,0.0419,0.0425,0.0428,0.045,0.0456,0.0471,0.0481,0.0484,0.0508,0.0521,0.0541,0.0559,0.057,0.0576,0.0582,0.057,0.0572,0.0569,0.0569,0.0552,0.0552,0.0575,0.0575,0.0575,0,0.0351,0.0354,0.0381,0.0388,0.0399,0.041,0.0419,0.0441,0.0449,0.0471,0.0474,0.0489,0.0502,0.0522,0.0541,0.0556,0.0563,0.0556,0.0565,0.056,0.0563,0.0563,0.0564,0.0553,0.0553,0.0553,0.0552,0,0.0327,0.0337,0.0349,0.0366,0.0376,0.039,0.0404,0.0409,0.0435,0.0444,0.0458,0.0468,0.0488,0.0503,0.0521,0.0533,0.0547,0.055,0.055,0.0544,0.0537,0.0542,0.0564,0.055,0.055,0.055,0.055,0.0551,0.0306,0.0311,0.0331,0.0344,0.0358,0.0372,0.0379,0.0396,0.0408,0.0426,0.0439,0.0453,0.0472,0.0498,0.0509,0.0521,0.0527,0.0527,0.0527,0.0526,0.0525,0.0536,0.0524,0.0524,0.0524,0.0524,0.0524,0,0.0283,0.0298,0.031,0.0331,0.0342,0.0355,0.0373,0.0381,0.0393,0.041,0.0423,0.044,0.0455,0.0476,0.0493,0.0498,0.0505,0.0502,0.0501,0.0504,0.0518,0.0517,0.0496,0.0496,0.0496,0.0496,0.0496,0.0496,0.0273,0.0282,0.0295,0.0312,0.0326,0.034,0.0349,0.0363,0.0376,0.0395,0.0408,0.0422,0.0441,0.0459,0.0474,0.048,0.0485,0.048,0.0488,0.05,0.0503,0.0505,0.0504,0.0481,0.0481,0.0473,0.0473,0.0473]},{"header":{"parameterUnit":"m.s-1","parameterCategory":1,"la1":30.2991,"la2":30.254,"lo1":-89.0895,"lo2":-89.0444,"dy":0.0017,"dx":0.0017,"nx":28,"ny":28,"refTime":"2025-07-03T09:00:00:Z","depth":0,"parameterNumber":3,"parameterNumberName":"V-component_of_WINDS"},"data":[0,0,0,0,0,0,0,0,0,0,0,0,0,0,0,0,0,0,0,0,0,0,0,0,0,0,0,0,0,0,0,0,0,0,0,0,0,0,0,0,0,0,0,0,0,0,0,0,0,0,0,0,0,0,0,0,0,0,-1.8266,-1.8266,0,-1.827,-1.827,-1.827,-1.8263,-1.8262,-1.8262,-1.8262,-1.8266,-1.8266,-1.8266,0,0,0,0,0,0,0,0,0,0,0,0,0,-1.8251,-1.8251,-1.8266,-1.8266,-1.8266,-1.827,-1.827,-1.827,-1.8263,-1.8262,-1.8262,-1.8262,-1.8265,-1.8266,-1.8266,0,0,0,0,0,0,0,0,0,0,0,0,0,-1.8257,-1.8251,-1.8266,-1.8263,-1.8263,-1.827,-1.827,-1.827,-1.8263,-1.8262,-1.8262,-1.8262,-1.8265,-1.8266,-1.8266,-1.8277,0,0,-1.8268,-1.8268,0,0,0,0,0,0,0,0,-1.8256,-1.8257,-1.8263,-1.8263,-1.8263,-1.8266,-1.8266,-1.8273,-1.8263,-1.8263,-1.8262,-1.8261,-1.8266,-1.8266,-1.8268,-1.8277,-1.8277,-1.8268,-1.8268,-1.8268,-1.8269,0,0,0,0,0,0,0,-1.8256,-1.8257,-1.8268,-1.8264,-1.8263,-1.8261,-1.8261,-1.8267,-1.8266,-1.8263,-1.8262,-1.8263,-1.8266,-1.8267,-1.8268,-1.8277,-1.8268,-1.8268,-1.8269,-1.8269,-1.8295,-1.8295,0,0,0,0,0,0,-1.8256,-1.8257,-1.8268,-1.8268,-1.8259,-1.8262,-1.8262,-1.8265,-1.8266,-1.8266,-1.8263,-1.8262,-1.8267,-1.8267,-1.8268,-1.828,-1.8268,-1.8269,-1.8269,-1.8294,-1.8295,-1.8295,0,0,0,0,0,0,-1.8256,-1.8257,-1.8268,-1.8262,-1.8263,-1.8262,-1.8266,-1.8265,-1.8267,-1.8267,-1.8266,-1.8265,-1.8266,-1.8267,-1.8275,-1.828,-1.8269,-1.827,-1.8294,-1.8295,-1.8295,-1.8304,0,0,0,0,0,0,-1.8255,-1.8257,-1.8261,-1.8262,-1.8264,-1.8274,-1.8266,-1.8266,-1.8268,-1.8267,-1.8268,-1.8268,-1.8266,-1.8274,-1.8275,-1.828,-1.827,-1.8293,-1.8294,-1.8295,-1.8303,-1.8305,-1.8306,0,0,0,0,0,-1.8255,-1.8264,-1.8262,-1.8263,-1.8269,-1.8275,-1.8276,-1.8273,-1.8269,-1.8273,-1.8272,-1.8268,-1.8279,-1.8275,-1.8276,-1.8282,-1.8293,-1.8294,-1.8295,-1.8303,-1.8305,-1.8306,0,0,0,0,0,0,-1.8264,-1.8264,-1.8261,-1.8271,-1.8273,-1.8274,-1.8279,-1.8275,-1.8279,-1.8278,-1.8274,-1.8275,-1.8282,-1.8283,-1.8278,-1.8292,-1.8285,-1.8287,-1.8291,-1.8293,-1.8294,-1.8294,-1.827,0,0,0,0,0,-1.8267,-1.8271,-1.8272,-1.828,-1.8281,-1.828,-1.8282,-1.828,-1.8282,-1.8283,-1.8283,-1.8284,-1.8288,-1.8291,-1.8294,-1.8304,-1.8303,-1.8308,-1.8309,-1.8311,-1.8312,-1.8316,-1.8318,-1.8298,-1.8298,-1.8298,0,0,-1.8273,-1.8274,-1.8277,-1.8282,-1.8283,-1.8288,-1.828,-1.8286,-1.8289,-1.8283,-1.829,-1.829,-1.8292,-1.83,-1.8304,-1.8301,-1.8317,-1.8312,-1.8313,-1.8313,-1.8317,-1.8319,-1.832,-1.8299,-1.8299,-1.8299,0,0,-1.8287,-1.8288,-1.8295,-1.8296,-1.8298,-1.8297,-1.8299,-1.83,-1.8299,-1.8306,-1.8302,-1.8305,-1.8312,-1.8313,-1.8315,-1.8328,-1.8324,-1.833,-1.8337,-1.8341,-1.8343,-1.8344,-1.8348,-1.835,-1.8331,-1.8331,-1.8331,0,-1.8294,-1.8301,-1.8299,-1.8304,-1.8306,-1.8301,-1.8308,-1.8309,-1.8312,-1.8313,-1.831,-1.8318,-1.8318,-1.8326,-1.833,-1.8331,-1.8333,-1.8329,-1.8343,-1.8344,-1.8345,-1.8349,-1.8351,-1.8331,-1.8331,-1.8331,-1.8331,0,-1.831,-1.8315,-1.832,-1.8323,-1.8325,-1.8332,-1.833,-1.8332,-1.833,-1.8329,-1.8336,-1.8337,-1.834,-1.8342,-1.834,-1.8349,-1.8347,-1.8343,-1.8337,-1.8348,-1.8351,-1.8353,-1.8332,-1.8332,-1.8331,-1.8331,0,0,-1.8329,-1.833,-1.8332,-1.8333,-1.8334,-1.8338,-1.8344,-1.8347,-1.8349,-1.8351,-1.8355,-1.8361,-1.8357,-1.8359,-1.8357,-1.836,-1.837,-1.8356,-1.8356,-1.8358,-1.838,-1.8382,-1.8384,-1.8368,-1.8368,-1.8368,-1.8379,0,-1.8342,-1.8352,-1.835,-1.8359,-1.8363,-1.8358,-1.8363,-1.8364,-1.8363,-1.8366,-1.8366,-1.8369,-1.8365,-1.8365,-1.8369,-1.8368,-1.8374,-1.8367,-1.8371,-1.8371,-1.837,-1.8386,-1.8388,-1.8399,-1.8381,-1.8381,-1.8381,0,-1.8359,-1.8361,-1.8371,-1.8371,-1.8372,-1.8377,-1.8379,-1.8382,-1.8383,-1.8382,-1.8384,-1.8381,-1.8386,-1.838,-1.8386,-1.8382,-1.8383,-1.8383,-1.8383,-1.8383,-1.8376,-1.8385,-1.8402,-1.8403,-1.8383,-1.8383,-1.8383,0,-1.8371,-1.8376,-1.8383,-1.8384,-1.8384,-1.8387,-1.8387,-1.8388,-1.839,-1.8392,-1.8393,-1.8395,-1.8397,-1.8399,-1.8396,-1.8392,-1.8403,-1.8397,-1.8402,-1.8402,-1.8404,-1.8403,-1.842,-1.8406,-1.8406,-1.8406,-1.8406,0,-1.8385,-1.8391,-1.8388,-1.8392,-1.8398,-1.8395,-1.8401,-1.8401,-1.8402,-1.8405,-1.8401,-1.8404,-1.8401,-1.8404,-1.8402,-1.8408,-1.8408,-1.8407,-1.8407,-1.8407,-1.8407,-1.8408,-1.8407,-1.8406,-1.8406,-1.8406,-1.8406,0,-1.8399,-1.8398,-1.8404,-1.8404,-1.8404,-1.8408,-1.8408,-1.8411,-1.841,-1.8414,-1.8415,-1.8414,-1.8417,-1.8415,-1.8418,-1.8417,-1.8423,-1.8422,-1.8423,-1.8422,-1.8427,-1.8426,-1.8444,-1.8446,-1.8431,-1.8431,-1.8431,0,-1.8408,-1.8412,-1.8412,-1.8414,-1.8415,-1.8418,-1.842,-1.8417,-1.8419,-1.842,-1.8423,-1.8426,-1.8428,-1.8433,-1.8432,-1.8434,-1.8432,-1.8438,-1.8433,-1.8433,-1.8431,-1.8431,-1.8431,-1.8439,-1.8439,-1.844,-1.844,0,-1.8424,-1.8422,-1.8425,-1.8427,-1.8429,-1.8431,-1.8432,-1.8434,-1.8431,-1.8433,-1.8436,-1.8438,-1.8441,-1.8443,-1.8445,-1.8445,-1.8442,-1.8442,-1.8443,-1.8443,-1.8443,-1.8442,-1.8425,-1.8441,-1.8441,-1.8441,-1.8441,-1.8441,-1.8435,-1.8438,-1.8438,-1.8441,-1.8442,-1.8443,-1.8446,-1.8445,-1.8448,-1.845,-1.8448,-1.8451,-1.8452,-1.8454,-1.8454,-1.8456,-1.8454,-1.8456,-1.8456,-1.8456,-1.8457,-1.8443,-1.8457,-1.8457,-1.8457,-1.8457,-1.8457,0,-1.8449,-1.8449,-1.8452,-1.8454,-1.8456,-1.8453,-1.8454,-1.8456,-1.8459,-1.8459,-1.8461,-1.8464,-1.8466,-1.8466,-1.8467,-1.8469,-1.8468,-1.847,-1.8469,-1.8469,-1.8459,-1.8458,-1.8471,-1.8471,-1.8471,-1.8471,-1.8471,-1.8471,-1.8457,-1.8462,-1.8461,-1.8466,-1.8466,-1.8469,-1.847,-1.8471,-1.8471,-1.8475,-1.8477,-1.8476,-1.8476,-1.8478,-1.848,-1.8479,-1.848,-1.8482,-1.8481,-1.8472,-1.847,-1.8469,-1.8467,-1.8483,-1.8483,-1.8491,-1.8491,-1.8491]}]]